Regional Weather Roundup
Issued by NWS

Home | Current Version | Previous Version | Text Only | Print | Product List | Glossary Off
Versions: 1 2 3 4 5 6 7 8 9 10 11 12 13 14 15 16 17 18 19 20 21 22 23 24 25 26 27 28 29 30 31 32 33 34 35 36 37 38 39 40 41 42 43 44 45 46 47 48 49 50

000
ASUS44 KMEG 070200
RWRTN
TENNESSEE HOURLY STATE WEATHER ROUNDUP
NATIONAL WEATHER SERVICE MEMPHIS TN
800 PM CST SAT FEB 06 2016

TNZ002-004-019-021-049-052-054-088>092-070300-
WEST TENNESSEE

CITY           SKY/WX    TMP DP  RH WIND       PRES   REMARKS
MEMPHIS INTL   PTCLDY    44  23  43 CALM      30.31S
NWS MEMPHIS      N/A     38 N/A N/A MISG        N/A
JACKSON        CLEAR     32  25  75 SW3       30.31R
DYERSBURG      CLEAR     41  21  45 CALM      30.32S
UNION CITY     CLEAR     34  25  69 CALM      30.28S
PARIS          CLEAR     34  21  60 CALM      30.29S
LEXINGTON      CLEAR     36  21  55 CALM      30.29S
$$

TNZ008-025-027-028-033-062-065-066-070300-
NORTH MIDDLE TENNESSEE

CITY           SKY/WX    TMP DP  RH WIND       PRES   REMARKS
NASHVILLE      PTCLDY    39  22  50 S3        30.30S
CLARKSVILLE    CLEAR     43  20  39 SW3       30.29S
COOKEVILLE     CLEAR     32  27  80 CALM      30.26S
CROSSVILLE     CLOUDY    36  20  52 CALM      30.26S
$$

TNZ061-075-076-078-094-096-097-070300-
SOUTH MIDDLE TENNESSEE

CITY           SKY/WX    TMP DP  RH WIND       PRES   REMARKS
TULLAHOMA      CLEAR     34  25  69 CALM      30.27S
WINCHESTER     CLOUDY    36  28  75 CALM      30.27F
MCMINNVILLE    CLEAR     37  27  65 CALM      30.27S
COLUMBIA       CLEAR     37  32  81 CALM      30.28R
SHELBYVILLE    CLEAR     36  30  80 CALM      30.30R
$$

TNZ017-018-042-046-047-070300-
NORTHEAST TENNESSEE

CITY           SKY/WX    TMP DP  RH WIND       PRES   REMARKS
TRI CITIES     MOCLDY    31  23  72 CALM      30.26F
$$

TNZ012-013-036-069-073-074-070300-
CENTRAL EAST TENNESSEE

CITY           SKY/WX    TMP DP  RH WIND       PRES   REMARKS
KNOXVILLE      NOT AVBL
OAK RIDGE      PTCLDY    40  25  55 CALM      30.29R
GATLINBURG       N/A     30  19  64 CALM      30.27S
$$

TNZ083-085-099-070300-
SOUTHEAST TENNESSEE

CITY           SKY/WX    TMP DP  RH WIND       PRES   REMARKS
CHATTANOOGA    MOCLDY    42  18  37 N6        30.28R
$$

SKY/WX REPORTED AS FAIR MEANS FEW OR NO CLOUDS BELOW
12 THOUSAND FEET.




USA.gov is the U.S. government's official web portal to all federal, state and local government web resources and services.